Weather History for Shelbyville, IN

Change the Weather History Date:

Thursday, June 14, 2012

  Actual Average Record
Temperature  
Mean Temperature 70 °F 71 °F  
Max Temperature 86 °F 82 °F 91 °F (2001)
Min Temperature 53 °F 61 °F 50 °F (2014)
Degree Days  
Heating Degree Days 0 0  
Month to date heating degree days 15 11  
Since 1 June heating degree days 15 11  
Since 1 July heating degree days 4152 5406  
Cooling Degree Days 5 7  
Month to date cooling degree days 56 79  
Year to date cooling degree days 296 160  
Since 1 June cooling degree days 56 79  
Growing Degree Days 19 (Base 50)    
Moisture  
Dew Point 45 °F    
Average Humidity 45    
Maximum Humidity 67    
Minimum Humidity 23    
Precipitation  
Precipitation 0.00 in 0.13 in 1.30 in (2003)
Month to date precipitation 0.05 2.21  
Year to date precipitation 13.10 19.99  
Sea Level Pressure  
Sea Level Pressure 30.08 in    
Wind  
Wind Speed 7 mph (East)    
Max Wind Speed 13 mph    
Max Gust Speed 17 mph    
Visibility 10 miles    
Events      
T = Trace of Precipitation, MM = Missing Value Source: NWS Daily Summary

Daily Weather History Graph

Daily Weather History Graph

Search for Another Location

Airport:

Trip Planner

Search our weather history database for the weather conditions in past years. The results will help you decide how hot, cold, wet, or windy it might be!

Date:

Astronomy

Jun. 14, 2012 Rise Set
Actual Time 6:15 AM EDT 9:12 PM EDT
Civil Twilight 5:42 AM EDT 9:44 PM EDT
Nautical Twilight 5:01 AM EDT 10:25 PM EDT
Astronomical Twilight 4:13 AM EDT 11:13 PM EDT
Moon 2:56 AM EDT (6/14) 4:55 PM EDT (6/14)
Length of Visible Light 16h 02m
Length of Day
14h 57m
Waning Crescent, 21% of the Moon is Illuminated
Jun 14
Waning Crescent
Jun 19
New
Jun 26
First Quarter
Jul 3
Full
Jul 10
Last Quarter

Hourly Weather History & Observations

Time (EDT) Temp. Dew Point Humidity Pressure Visibility Wind Dir Wind Speed Gust Speed Precip Events Conditions
12:53 AM 57.9 °F 46.9 °F 67% 30.07 in 10.0 mi ENE 6.9 mph - N/A   Clear
1:53 AM 60.1 °F 44.1 °F 55% 30.06 in 10.0 mi East 8.1 mph - N/A   Clear
2:53 AM 59.0 °F 44.1 °F 58% 30.07 in 10.0 mi East 6.9 mph - N/A   Clear
3:53 AM 57.9 °F 44.1 °F 60% 30.07 in 10.0 mi East 8.1 mph - N/A   Clear
4:53 AM 55.9 °F 43.0 °F 62% 30.08 in 10.0 mi East 6.9 mph - N/A   Clear
5:53 AM 54.0 °F 43.0 °F 66% 30.10 in 10.0 mi ENE 4.6 mph - N/A   Clear
6:53 AM 55.0 °F 42.1 °F 62% 30.12 in 10.0 mi ENE 5.8 mph - N/A   Clear
7:53 AM 60.1 °F 44.1 °F 55% 30.13 in 10.0 mi East 8.1 mph - N/A   Clear
8:53 AM 66.0 °F 46.0 °F 48% 30.13 in 10.0 mi East 5.8 mph - N/A   Clear
9:53 AM 71.1 °F 48.0 °F 44% 30.13 in 10.0 mi East 5.8 mph - N/A   Clear
10:53 AM 73.9 °F 45.0 °F 35% 30.12 in 10.0 mi Variable 5.8 mph - N/A   Clear
11:53 AM 77.0 °F 46.0 °F 33% 30.12 in 10.0 mi East 10.4 mph - N/A   Clear
12:53 PM 79.0 °F 44.1 °F 29% 30.11 in 10.0 mi NE 9.2 mph - N/A   Clear
1:53 PM 82.0 °F 44.1 °F 26% 30.09 in 10.0 mi East 10.4 mph 17.3 mph N/A   Clear
2:53 PM 82.0 °F 42.1 °F 24% 30.07 in 10.0 mi Variable 5.8 mph 17.3 mph N/A   Clear
3:53 PM 84.9 °F 44.1 °F 24% 30.08 in 10.0 mi Variable 5.8 mph - N/A   Clear
4:53 PM 84.9 °F 42.1 °F 22% 30.07 in 10.0 mi ESE 5.8 mph - N/A   Clear
5:53 PM 84.9 °F 42.1 °F 22% 30.07 in 10.0 mi ESE 6.9 mph - N/A   Clear
6:53 PM 84.0 °F 44.1 °F 25% 30.06 in 10.0 mi ESE 6.9 mph - N/A   Clear
7:53 PM 82.0 °F 45.0 °F 27% 30.06 in 10.0 mi SE 5.8 mph - N/A   Clear
8:53 PM 75.9 °F 44.1 °F 32% 30.04 in 10.0 mi ESE 6.9 mph - N/A   Clear
9:53 PM 73.0 °F 46.0 °F 38% 30.04 in 10.0 mi ESE 6.9 mph - N/A   Clear
10:53 PM 68.0 °F 48.0 °F 49% 30.05 in 10.0 mi ESE 5.8 mph - N/A   Clear
11:53 PM 66.0 °F 48.0 °F 52% 30.04 in 10.0 mi ESE 6.9 mph - N/A   Clear